Location: Observatorio Las Palmas
(29.0667°N, 110.9333°W)
Time: 16:04:56
(UTC-07:00)

Daily predictions for brighter satellites

Satellite Brightness Start Highest point End
(mag) Time Altitude Azimuth Time Altitude Azimuth Time Altitude Azimuth
Meteosat 1 Rocket2 3.7 19:32:36 10° WSW 19:37:22 79° S 19:44:41 10° E
Spot 2 Rocket 3.9 19:33:40 10° S 19:38:45 71° WSW 19:43:51 10° NNW
METEOR-M 4.2 19:33:40 10° SSE 19:39:00 90° ENE 19:44:22 10° NNW
Cosmos 1703 Rocket 3.8 19:35:04 10° N 19:39:34 81° W 19:44:02 10° S
CZ-4B DEB 2.8 19:39:01 10° SSE 19:42:16 69° ENE 19:45:32 10° N
GPS 2-05 Rocket1 3.5 19:40:53 10° WSW 19:44:36 62° NNW 19:48:15 10° ENE
H-2A R/B 3.4 19:44:18 10° SE 19:47:40 35° ENE 19:51:05 10° N
Coronas F rocket 1.7 19:45:35 10° SSE 19:48:03 38° E 19:50:33 10° NNE
ERBS 4.1 19:45:31 10° N 19:48:11 20° NE 19:50:50 10° E
Abrixas rocket 2.3 19:45:59 10° NW 19:49:24 72° NE 19:52:46 10° SE
SEDSat Delta rocket 3.8 19:45:52 10° SW 19:49:56 31° SSE 19:53:40 10° E
USA 215 4.0 19:45:32 10° SSE 19:51:51 50° SW 19:58:11 10° NW
Cosmos 1624 Rocket 4.0 19:47:04 10° SSW 19:52:19 85° ESE 19:57:38 10° NNE
Atlas Centaur 2 1.2 19:53:23 10° W 19:57:06 70° N 20:00:39 10° E
OAO 1 Rocket 4.4 19:55:51 10° WSW 20:01:06 68° SSE 20:06:23 10° ENE
Cosmos 2084 3.4 19:58:21 10° S 20:02:08 47° ESE 20:05:50 10° NE
Cosmos 1733 Rocket 3.1 20:01:14 10° S 20:05:36 63° E 20:09:57 10° NNE
ERS-1 Rocket 3.9 20:02:39 12° SE 20:06:37 29° ENE 20:10:56 10° NNE
IUS-26 SRM-1 2.3 20:07:39 10° WSW 20:09:42 34° S 20:10:36 21° SE
ATLAS 5 CENTAUR R/B 2.8 20:05:30 10° NNW 20:11:32 52° ENE 20:16:44 15° SE
NOSS 5 (C) 4.4 20:11:22 10° SSW 20:15:21 87° ESE 20:18:35 10° NNE
Cosmos 1452 Rocket 3.7 20:11:27 10° S 20:16:29 49° ESE 20:21:33 10° NNE
deb Chang Zheng 4 4.2 20:13:58 10° NNE 20:18:02 36° E 20:22:07 10° SSE
Cosmos 1408 3.9 20:18:17 20° ESE 20:18:54 20° E 20:21:40 10° NE
Cosmos 1825 3.3 20:22:41 22° ESE 20:23:38 25° E 20:26:48 10° NE
Cosmos 2154 Rocket 4.3 20:18:09 10° SSE 20:24:01 46° E 20:29:53 10° NNE
YAOGAN 11 4.3 20:20:51 16° SSE 20:24:21 55° ENE 20:28:48 10° N
STPSAT 2 (USA 217) 4.5 20:21:02 10° SSW 20:25:30 81° ESE 20:30:00 10° NNE
ALOS 2.9 20:21:04 10° S 20:25:38 57° W 20:30:14 10° NNW
COSMOS 2406 3.2 20:20:55 10° NNW 20:26:38 68° ENE 20:30:54 18° SSE
Cosmos 1190 Rocket 4.3 20:22:06 10° N 20:27:06 47° ENE 20:30:11 22° SE
Cosmos 2278 Rocket 2.3 20:22:41 10° S 20:28:10 54° ESE 20:33:41 10° NNE
Intelsat 3F5 C 4.1 20:26:13 10° W 20:29:31 74° N 20:31:02 27° ENE
Cosmos 2184 Rocket 4.3 20:24:21 10° SSW 20:30:28 71° W 20:36:38 10° N
Cosmos 1844 Rocket 3.3 20:25:29 10° SSW 20:31:04 61° WNW 20:36:39 10° N
USA 234 4.3 20:27:05 10° ENE 20:35:31 13° SSE 20:36:21 10° SSE
Centaur AC-119 1.2 20:29:34 10° W 20:32:07 46° S 20:32:07 46° S
Cosmos 1184 Rocket 4.2 20:32:42 23° ENE 20:32:42 23° ENE 20:34:54 10° NE
Cosmos 1844 3.8 20:27:20 10° SSW 20:33:03 83° WNW 20:38:53 10° NNE
H-2A R/B 2.9 20:32:35 25° ESE 20:34:00 31° ENE 20:37:46 10° N
USA 186 3.8 20:42:22 10° SSW 20:44:54 25° W 20:47:36 10° NW
ISS -0.7 20:42:39 10° W 20:45:19 23° NW 20:47:59 10° NNE
CZ-3C R/B 3.4 20:00:51 10° WSW 20:46:30 47° S 20:50:58 27° SE
Meteor 2-10 Rocket 4.3 20:41:44 10° NNW 20:47:23 58° W 20:52:49 10° S
Cosmos 1862 3.2 20:50:01 26° S 20:52:14 82° E 20:56:19 10° N
CENTAUR R/B 3.4 20:45:49 10° NW 20:53:49 65° WSW 21:00:10 18° S
Cosmos 2082 Rocket 4.3 20:52:16 10° NE 20:54:02 11° ENE 20:54:52 11° ENE
SPOT 5 3.5 20:55:02 36° ESE 20:56:30 45° ENE 21:01:34 10° N
Cosmos 676 Rocket 4.1 20:52:41 10° N 20:57:47 54° ENE 20:59:13 41° ESE
Cosmos 1238 Rocket 3.4 20:54:58 10° NNE 20:57:48 38° ENE 20:57:48 38° ENE
Cosmos 1954 Rocket 4.4 20:57:27 10° N 21:02:26 45° ENE 21:03:20 41° E
COS B Rocket 2.9 20:58:48 10° N 21:02:41 77° E 21:02:44 76° ESE
Okean 2 Rocket 3.1 21:02:42 54° ESE 21:03:05 56° E 21:07:24 10° NNE
Cosmos 2297 3.8 21:00:51 31° SSE 21:03:20 53° ESE 21:08:52 10° NNE
EO 1 Delta rocket 4.1 20:59:02 10° N 21:04:42 81° W 21:08:10 19° SSW
OAO 3 Rocket 3.2 21:00:52 10° WSW 21:05:50 84° NNW 21:08:12 31° ENE
Cosmos 1674 Rocket 4.4 21:03:29 10° NNW 21:07:46 49° W 21:10:12 23° SSW
SL-27 R/B 3.6 21:05:30 10° NNW 21:08:53 38° WSW 21:09:43 33° SW
Okean 3 3.7 21:05:05 10° N 21:09:00 51° ENE 21:09:00 51° ENE
Cosmos 1606 2.8 21:08:36 10° N 21:12:31 74° W 21:12:55 66° SW
PSLV R/B 3.8 21:10:33 10° WNW 21:13:25 59° NW 21:13:25 59° NW
Cosmos 1782 Rocket 3.6 21:15:08 45° SSW 21:16:27 76° W 21:20:55 10° N
Cosmos 2218 Rocket 4.2 21:18:41 46° ESE 21:19:31 49° E 21:25:38 10° NNE
Meteor 1-27 Rocket 3.9 21:18:31 10° NNW 21:24:00 67° W 21:26:04 38° SSW
Nadezhda 3 Rocket 4.1 21:18:46 10° N 21:25:08 76° W 21:27:59 35° S
Meteor 2-13 Rocket 4.4 21:23:53 35° S 21:26:42 88° W 21:32:54 10° N
COSMOS 2487 3.8 21:24:03 10° N 21:26:19 36° N 21:26:19 36° N
Envisat 3.5 21:26:19 38° SSW 21:27:57 55° W 21:32:56 10° NNW
MetOp-B 4.0 21:27:42 68° SE 21:28:18 78° ENE 21:33:40 10° N
Cosmos 1939 Rocket 4.2 21:29:41 30° WSW 21:30:17 32° W 21:33:48 10° NNW
APEX 4.0 21:32:03 48° WNW 21:32:15 49° WNW 21:36:35 10° N
Cosmos 1959 Rocket 4.3 21:34:38 65° SE 21:35:09 68° E 21:41:13 10° NNE
SEDSat Delta rocket 3.8 21:31:35 10° WSW 21:34:25 40° W 21:34:25 40° W
Cosmos 1975 Rocket 3.4 21:33:56 10° N 21:37:35 61° NNW 21:37:35 61° NNW
Meteosat 1 Rocket2 4.3 21:32:22 10° W 21:38:39 79° S 21:41:03 51° ESE
Atlas Centaur 2 3.3 21:42:12 10° W 21:43:28 21° W 21:43:28 21° W
ARGOS 3.3 21:46:44 63° NE 21:46:44 63° NE 21:51:31 10° N
H-2A R/B 3.3 21:53:53 32° NE 21:53:53 32° NE 21:57:24 10° N
ATLAS 5 CENTAUR R/B 4.3 21:51:19 10° WNW 21:55:57 22° WSW 21:58:19 18° SW
SL-8 Rocket 4.3 21:54:45 45° SW 21:56:31 63° W 22:02:42 10° N
Cosmos 1140 Rocket 3.9 21:54:48 10° NNW 21:59:10 60° NW 21:59:10 60° NW
Timation 2 Rocket 3.9 21:58:54 10° NNW 22:04:20 75° NNW 22:04:20 75° NNW
SPOT 1/Viking Rocket 4.1 22:08:41 54° WNW 22:08:41 54° WNW 22:13:04 10° NNW
USA 234 3.3 22:08:27 10° NE 22:14:58 76° NW 22:17:45 37° SW
Cosmos 1833 Rocket 3.7 22:11:38 10° N 22:15:24 38° NNE 22:15:24 38° NNE
FALCON 9 R/B 4.4 21:54:09 10° WNW 22:21:04 42° SW 22:23:46 37° SSW
Terra 3.7 22:31:15 27° N 22:31:15 27° N 22:33:23 10° N
Cosmos 2082 Rocket 3.2 22:32:59 10° NNW 22:36:43 42° NNW 22:36:43 42° NNW
USA 229 DEB 4.4 22:59:04 10° NNW 23:04:18 52° NW 23:04:18 52° NW
USA 229 4.4 22:59:09 10° NNW 23:04:24 52° NW 23:04:24 52° NW
Cosmos 2369 Rocket 4.3 23:23:58 20° NNE 23:23:58 20° NNE 23:25:40 10° NNE
